Regional Weather Roundup
Issued by NWS

Home | Current Version | Previous Version | Text Only | Print | Product List | Glossary Off
Versions: 1 2 3 4 5 6 7 8 9 10 11 12 13 14 15 16 17 18 19 20 21 22 23 24 25 26 27 28 29 30 31 32 33 34 35 36 37 38 39 40 41 42 43 44 45 46 47 48 49 50

000
ASUS43 KMPX 021910
RWRMN
WEATHER ROUNDUP FOR MINNESOTA
NATIONAL WEATHER SERVICE TWIN CITIES/CHANHASSEN MN
200 PM CDT WED SEP 02 2015


NOTE: "FAIR" INDICATES FEW OR NO CLOUDS BELOW 12,000 FEET WITH NO
SIGNIFICANT WEATHER AND/OR OBSTRUCTIONS TO VISIBILITY. N/A MEANS
CURRENT SKY AND/OR WEATHER CONDITIONS ARE NOT AVAILABLE.

MNZ060>063-068>070-022000-
   Twin Cities Metro

CITY           SKY/WX    TMP DP  RH WIND       PRES   REMARKS
TWIN CITIES    CLOUDY    76  68  76 E14       29.91R
ST PAUL        CLOUDY    73  67  81 E7        29.92R
CRYSTAL        CLOUDY    76  68  76 E12       29.90R
BLAINE         CLOUDY    73  70  88 E13       29.93R
LAKEVILLE      PTSUNNY   79  72  78 E5        29.89S
EDEN PRAIRIE   PTSUNNY   80  71  74 NE10      29.88S
SOUTH ST PAUL  CLOUDY    74  67  77 E9        29.92R
LAKE ELMO      CLOUDY    68  64  88 NE9       29.95R
$$
MNZ001>005-007-008-013>017-022>024-027-028-022000-
   Northwest Minnesota

CITY           SKY/WX    TMP DP  RH WIND       PRES   REMARKS
BEMIDJI        SUNNY     82  64  53 SE12G20   29.90S
HALLOCK        SUNNY     88  64  45 S16       29.80F
ROSEAU         SUNNY     86  70  58 SE10G16   29.86R HX  90
WARROAD        SUNNY     84  72  65 SE10      29.86F
THIEF RVR FALL SUNNY     84  63  48 SE13      29.84F
CROOKSTON      SUNNY     86  64  48 SE13G23   29.82F
FOSSTON        SUNNY     88  59  37 SE13      29.87S
DETROIT LAKES  SUNNY     84  63  48 SE14G22   29.88S
MOORHEAD       SUNNY     88  64  45 SE14      29.83F
PARK RAPIDS    SUNNY     84  63  49 SE15      29.90F
MAHNOMEN       FAIR      85  65  51 SE12      29.86S
$$
MNZ006-009>011-018-025>026-022000-
   North Central Minnesota

CITY           SKY/WX    TMP DP  RH WIND       PRES   REMARKS
BAUDETTE       MOSUNNY   84  70  62 S14       29.88S
FLAG ISLAND    SUNNY     75  68  78 SE9       29.86S
INTL FALLS     SUNNY     80  65  59 VRB7      29.92F
WASKISH        PTSUNNY   82  70  65 E12G20    29.89F
BIG FORK       SUNNY     82  64  54 S6        29.93F
LONGVILLE      SUNNY     81  64  57 SE8       29.91F
GRAND RAPIDS     N/A     79  61  53 SE9       29.93S
CRANE LAKE     PTSUNNY   73  64  73 S5        29.97F
ORR            MOSUNNY   81  57  44 SE7       29.92F
COOK           MOSUNNY   79  61  53 CALM      29.95F
WALKER         FAIR      80  64  58 SE13      29.91S
$$
MNZ012-019>021-037-022000-
   Northeast Minnesota

CITY           SKY/WX    TMP DP  RH WIND       PRES   REMARKS
DULUTH         CLOUDY    72  65  78 SE9       29.97R
ELY            CLOUDY    72  61  68 E5        29.98S
HIBBING        MOSUNNY   80  60  50 VRB7      29.94F
EVELETH        PTSUNNY   72  63  73 NE7       29.97S
DULUTH HARBOR  PTSUNNY   75  68  78 E3        29.95R
TWO HARBORS    HAZE      66  63  88 E7        29.98R VSB 1/2
SILVER BAY     CLOUDY    70  64  83 CALM      29.97R
GRAND MARAIS     N/A     62  53  72 NE6       29.96F
G MARAIS ARPRT CLOUDY    72  55  56 CALM      30.01F
$$
MNZ029>031-032-039>041-046>048-054>057-064-022000-
   West Central Minnesota

CITY           SKY/WX    TMP DP  RH WIND       PRES   REMARKS
FERGUS FALLS   SUNNY     84  66  54 SE14      29.84S
WHEATON        SUNNY     82  70  65 E14G20    29.84S
MORRIS         SUNNY     84  72  65 SE14      29.84F
ALEXANDRIA     MOSUNNY   81  69  67 E15       29.90S
ELBOW LAKE     FAIR      82  69  64 SE13      29.86S
WADENA         SUNNY     81  64  57 E13       29.90S
GLENWOOD       SUNNY     81  70  69 E12       29.90S
APPLETON       SUNNY     84  70  61 E14       29.83F
BENSON         MOSUNNY   82  70  65 SE9       29.86S
ORTONVILLE     SUNNY     82  70  65 SE12G18   29.83S
MADISON        SUNNY     84  72  65 SE10      29.83S
WILLMAR        PTSUNNY   82  73  74 E8        29.88F
$$
MNZ033>034-036-042>043-049>051-058-059-022000-
   Central Minnesota

CITY           SKY/WX    TMP DP  RH WIND       PRES   REMARKS
ST CLOUD       CLOUDY    75  69  81 E9        29.91R
SAUK CENTRE    CLOUDY    77  69  75 E12       29.91S
PAYNESVILLE    CLOUDY    77  69  75 N8        29.90S
AITKIN         PTSUNNY   79  68  69 SE13      29.92S
PINE RIVER     SUNNY     79  66  65 SE14      29.95S
BRAINERD       MOSUNNY   79  65  62 SE15G23   29.91F
STAPLES        MOSUNNY   81  63  54 E9G16     29.90S
LONG PRAIRIE   CLOUDY    77  68  73 E6        29.91S
LITTLE FALLS   MOSUNNY   81  64  57 E9        29.90F
LITCHFIELD     MOSUNNY   81  73  78 E6        29.89S
BUFFALO        CLOUDY    77  68  72 E7        29.91R
MAPLE LAKE     CLOUDY    78  72  81 E6        29.91S
$$
MNZ037-044-045-052-053-022000-
   East Central Minnesota

CITY           SKY/WX    TMP DP  RH WIND       PRES   REMARKS
PRINCETON      PTSUNNY   75  70  83 E8        29.93R
MORA           CLOUDY    70  64  83 E17       29.97R
CAMBRIDGE      CLOUDY    73  63  68 E6        29.93R
RUSH CITY      CLOUDY    70  65  85 E7        29.96R
MOOSE LAKE     MOSUNNY   75  64  69 S6        29.92F
HINCKLEY       CLOUDY    73  66  78 E17       29.96F
CLOQUET        PTSUNNY   75  63  64 SE7       29.95R
MCGREGOR       SUNNY     77  64  65 SE13      29.93F
$$
MNZ071>073-080-081-089-090-097-098-022000-
   Southwest Minnesota

CITY           SKY/WX    TMP DP  RH WIND       PRES   REMARKS
MONTEVIDEO     SUNNY     88  73  62 SE8       29.86S HX  96
GRANITE FALLS  SUNNY     84  73  68 E5        29.86S HX  90
CANBY          SUNNY     86  73  65 SE8       29.85R HX  92
MARSHALL       SUNNY     86  72  62 S7        29.86S HX  92
REDWOOD FALLS  PTSUNNY   84  72  67 SE6       29.85S
OLIVIA         PTSUNNY   81  68  65 SE5       29.86S
PIPESTONE      MOSUNNY   84  73  70 S9        29.86S HX  91
WINDOM         SUNNY     84  70  61 S10       29.87S
WORTHINGTON    SUNNY     82  72  69 S13       29.87S
JACKSON        SUNNY     84  72  65 S13       29.89S
TRACY          SUNNY     85  75  70 S7        29.86S HX  94
SLAYTON        SUNNY     84  73  70 S8        29.88S HX  90
$$
MNZ065>067-074>077-082>085-091>093-022000-
   South Central Minnesota

CITY           SKY/WX    TMP DP  RH WIND       PRES   REMARKS
MANKATO        PTSUNNY   82  72  69 S8        29.87S
NEW ULM        MOSUNNY   82  72  69 S8        29.86S
ST JAMES       SUNNY     84  73  70 S9        29.87F HX  91
FAIRMONT       MOSUNNY   84  70  61 S13       29.87F
GLENCOE        CLOUDY    81  74  79 NE5       29.87F
FARIBAULT      CLOUDY    82  72  69 S6        29.89S
OWATONNA       MOSUNNY   82  70  65 S13       29.89F
WASECA         PTSUNNY   81  70  69 SW10      29.90S
ALBERT LEA     SUNNY     82  70  65 SW10G20   29.89F
$$
MNZ078>079-086>088-094>096-022000-
   Southeast Minnesota

CITY           SKY/WX    TMP DP  RH WIND       PRES   REMARKS
ROCHESTER      CLOUDY    81  71  71 S12       29.93F
RED WING       CLOUDY    77  70  78 E7        29.91R
STANTON        CLOUDY    82  69  64 S6        29.89R
DODGE CENTER   PTSUNNY   81  70  69 SW12G17   29.91F
WINONA         CLOUDY    82  64  54 SW3       29.92F
AUSTIN         PTSUNNY   82  70  65 S15G21    29.90F
PRESTON        CLOUDY    80  68  67 S12       29.94F
$$
ABBREVIATIONS USED IN REMARKS
   TC - TEMPERATURES IN CELSIUS
  WCI - WIND CHILL INDEX
   HX - HEAT INDEX
  VSB - VISIBILITY
$$



USA.gov is the U.S. government's official web portal to all federal, state and local government web resources and services.